Time,TemperatureF,DewpointF,PressureIn,WindDirection,WindDirectionDegrees,WindSpeedMPH,WindSpeedGustMPH,Humidity,HourlyPrecipIn,Conditions,Clouds,dailyrainin,SolarRadiationWatts/m^2,SoftwareType,DateUTC
2013-06-29 00:14:00,79.6,74.0,29.72,SW,216,1.0,3.0,83,0.00,,,0.00,0,weatherlink.com 1.10,2013-06-29 04:14:00,
2013-06-29 00:30:00,79.4,74.0,29.71,SSW,211,1.0,5.0,84,0.00,,,0.00,0,weatherlink.com 1.10,2013-06-29 04:30:00,
2013-06-29 00:44:00,79.2,74.0,29.70,South,173,1.0,6.0,84,0.00,,,0.00,0,weatherlink.com 1.10,2013-06-29 04:44:00,
2013-06-29 00:59:00,79.2,74.0,29.71,SSW,203,3.0,4.0,84,0.00,,,0.00,0,weatherlink.com 1.10,2013-06-29 04:59:00,
2013-06-29 01:14:00,79.0,74.0,29.71,SSW,205,1.0,4.0,85,0.00,,,0.00,0,weatherlink.com 1.10,2013-06-29 05:14:00,
2013-06-29 01:30:00,79.0,75.0,29.71,SSW,195,0.0,7.0,86,0.00,,,0.00,0,weatherlink.com 1.10,2013-06-29 05:30:00,
2013-06-29 01:45:00,79.0,75.0,29.70,South,182,0.0,4.0,86,0.00,,,0.00,0,weatherlink.com 1.10,2013-06-29 05:45:00,
2013-06-29 02:00:00,78.8,75.0,29.70,SSW,200,0.0,5.0,87,0.00,,,0.00,0,weatherlink.com 1.10,2013-06-29 06:00:00,
2013-06-29 02:15:00,78.6,75.0,29.70,SSW,210,0.0,5.0,87,0.00,,,0.00,0,weatherlink.com 1.10,2013-06-29 06:15:00,
2013-06-29 02:30:00,78.6,75.0,29.70,SW,215,0.0,3.0,88,0.00,,,0.00,0,weatherlink.com 1.10,2013-06-29 06:30:00,
2013-06-29 02:45:00,78.6,75.0,29.70,SW,233,2.0,6.0,88,0.00,,,0.00,0,weatherlink.com 1.10,2013-06-29 06:45:00,
2013-06-29 03:00:00,78.6,75.0,29.71,SW,232,1.0,7.0,88,0.00,,,0.00,0,weatherlink.com 1.10,2013-06-29 07:00:00,
2013-06-29 03:15:00,78.5,75.0,29.71,South,182,0.0,5.0,88,0.00,,,0.00,0,weatherlink.com 1.10,2013-06-29 07:15:00,
2013-06-29 03:30:00,78.5,75.0,29.71,SW,221,0.0,5.0,88,0.00,,,0.00,0,weatherlink.com 1.10,2013-06-29 07:30:00,
2013-06-29 03:45:00,78.6,75.0,29.71,WSW,244,3.0,5.0,88,0.00,,,0.00,0,weatherlink.com 1.10,2013-06-29 07:45:00,
2013-06-29 04:00:00,78.6,75.0,29.72,SW,236,3.0,5.0,88,0.00,,,0.00,0,weatherlink.com 1.10,2013-06-29 08:00:00,
2013-06-29 04:15:00,78.6,75.0,29.72,WSW,241,0.0,7.0,88,0.00,,,0.00,0,weatherlink.com 1.10,2013-06-29 08:15:00,
2013-06-29 04:30:00,78.5,75.0,29.72,SSW,204,0.0,4.0,88,0.00,,,0.00,0,weatherlink.com 1.10,2013-06-29 08:30:00,
2013-06-29 04:45:00,78.5,75.0,29.72,SSW,202,1.0,3.0,88,0.00,,,0.00,0,weatherlink.com 1.10,2013-06-29 08:45:00,
2013-06-29 05:00:00,78.5,75.0,29.72,SW,220,0.0,3.0,88,0.00,,,0.00,0,weatherlink.com 1.10,2013-06-29 09:00:00,
2013-06-29 05:15:00,78.5,75.0,29.72,SSW,196,0.0,2.0,88,0.00,,,0.00,0,weatherlink.com 1.10,2013-06-29 09:15:00,
2013-06-29 05:30:00,78.6,75.0,29.71,SSW,213,0.0,4.0,89,0.00,,,0.00,0,weatherlink.com 1.10,2013-06-29 09:30:00,
2013-06-29 05:45:00,78.6,75.0,29.72,SSW,198,0.0,6.0,89,0.00,,,0.00,0,weatherlink.com 1.10,2013-06-29 09:45:00,
2013-06-29 06:00:00,78.8,75.0,29.72,SW,230,0.0,3.0,89,0.00,,,0.00,0,weatherlink.com 1.10,2013-06-29 10:00:00,
2013-06-29 06:15:00,78.6,75.0,29.72,SW,229,1.0,4.0,89,0.00,,,0.00,0,weatherlink.com 1.10,2013-06-29 10:15:00,
2013-06-29 06:30:00,78.6,75.0,29.72,SW,219,0.0,5.0,89,0.00,,,0.00,0,weatherlink.com 1.10,2013-06-29 10:30:00,
2013-06-29 06:45:00,78.6,75.0,29.72,SSW,213,1.0,4.0,89,0.00,,,0.00,7,weatherlink.com 1.10,2013-06-29 10:45:00,
2013-06-29 07:00:00,78.6,75.0,29.72,SW,217,4.0,6.0,89,0.00,,,0.00,14,weatherlink.com 1.10,2013-06-29 11:00:00,
2013-06-29 07:15:00,78.6,75.0,29.73,South,186,0.0,4.0,88,0.00,,,0.00,25,weatherlink.com 1.10,2013-06-29 11:15:00,
2013-06-29 07:30:00,78.8,75.0,29.73,SSW,213,0.0,6.0,88,0.00,,,0.00,49,weatherlink.com 1.10,2013-06-29 11:30:00,
2013-06-29 07:45:00,79.0,75.0,29.73,SSW,200,0.0,4.0,88,0.00,,,0.00,84,weatherlink.com 1.10,2013-06-29 11:45:00,
2013-06-29 08:00:00,79.2,75.0,29.72,SW,227,0.0,5.0,88,0.00,,,0.00,93,weatherlink.com 1.10,2013-06-29 12:00:00,
2013-06-29 08:15:00,79.8,76.0,29.72,WSW,254,0.0,6.0,87,0.00,,,0.00,206,weatherlink.com 1.10,2013-06-29 12:15:00,
2013-06-29 08:30:00,80.5,76.0,29.72,SSW,196,4.0,8.0,85,0.00,,,0.00,258,weatherlink.com 1.10,2013-06-29 12:30:00,
2013-06-29 08:45:00,81.2,76.0,29.72,WSW,237,2.0,11.0,83,0.00,,,0.00,185,weatherlink.com 1.10,2013-06-29 12:45:00,
2013-06-29 09:00:00,81.4,75.0,29.73,SW,229,4.0,10.0,81,0.00,,,0.00,192,weatherlink.com 1.10,2013-06-29 13:00:00,
2013-06-29 09:15:00,82.0,75.0,29.73,WSW,242,5.0,8.0,80,0.00,,,0.00,471,weatherlink.com 1.10,2013-06-29 13:15:00,
2013-06-29 09:30:00,82.8,75.0,29.73,WSW,253,5.0,9.0,77,0.00,,,0.00,246,weatherlink.com 1.10,2013-06-29 13:30:00,
2013-06-29 09:45:00,82.4,73.0,29.74,SW,217,0.0,11.0,74,0.00,,,0.00,67,weatherlink.com 1.10,2013-06-29 13:45:00,
2013-06-29 10:00:00,81.1,73.0,29.73,SSW,213,0.0,4.0,75,0.01,,,0.01,109,weatherlink.com 1.10,2013-06-29 14:00:00,
2013-06-29 10:15:00,80.1,72.0,29.75,WSW,248,0.0,4.0,77,0.01,,,0.01,91,weatherlink.com 1.10,2013-06-29 14:15:00,
2013-06-29 10:30:00,79.9,73.0,29.73,SW,228,0.0,6.0,79,0.01,,,0.01,105,weatherlink.com 1.10,2013-06-29 14:30:00,
2013-06-29 10:45:00,79.8,74.0,29.73,SW,222,0.0,6.0,81,0.01,,,0.01,130,weatherlink.com 1.10,2013-06-29 14:45:00,
2013-06-29 11:00:00,79.8,74.0,29.73,WSW,242,0.0,8.0,82,0.00,,,0.01,186,weatherlink.com 1.10,2013-06-29 15:00:00,
2013-06-29 11:15:00,79.8,74.0,29.73,West,259,1.0,6.0,81,0.00,,,0.01,285,weatherlink.com 1.10,2013-06-29 15:15:00,
2013-06-29 11:31:00,79.9,73.0,29.73,West,281,0.0,9.0,80,0.00,,,0.01,299,weatherlink.com 1.10,2013-06-29 15:31:00,
2013-06-29 11:46:00,80.7,73.0,29.73,South,178,0.0,8.0,78,0.00,,,0.01,297,weatherlink.com 1.10,2013-06-29 15:46:00,
2013-06-29 12:01:00,81.2,73.0,29.74,SW,226,0.0,8.0,75,0.00,,,0.01,332,weatherlink.com 1.10,2013-06-29 16:01:00,
2013-06-29 12:16:00,81.4,72.0,29.73,South,182,0.0,7.0,74,0.00,,,0.01,548,weatherlink.com 1.10,2013-06-29 16:16:00,
2013-06-29 12:31:00,82.2,73.0,29.73,SE,145,0.0,10.0,73,0.00,,,0.01,346,weatherlink.com 1.10,2013-06-29 16:31:00,
2013-06-29 12:46:00,82.4,73.0,29.72,SSW,207,0.0,9.0,73,0.00,,,0.01,566,weatherlink.com 1.10,2013-06-29 16:46:00,
2013-06-29 13:01:00,83.0,73.0,29.72,SW,221,0.0,7.0,71,0.00,,,0.01,311,weatherlink.com 1.10,2013-06-29 17:01:00,
2013-06-29 13:16:00,82.6,72.0,29.72,SSW,210,0.0,10.0,71,0.00,,,0.01,251,weatherlink.com 1.10,2013-06-29 17:16:00,
2013-06-29 13:31:00,82.4,73.0,29.72,South,176,0.0,11.0,73,0.00,,,0.01,250,weatherlink.com 1.10,2013-06-29 17:31:00,
2013-06-29 13:46:00,82.4,74.0,29.72,WSW,258,5.0,5.0,76,0.00,,,0.01,267,weatherlink.com 1.10,2013-06-29 17:46:00,
2013-06-29 14:01:00,82.0,73.0,29.73,SW,232,0.0,9.0,75,0.00,,,0.01,214,weatherlink.com 1.10,2013-06-29 18:01:00,
2013-06-29 14:16:00,81.4,73.0,29.73,WSW,252,0.0,4.0,75,0.00,,,0.01,283,weatherlink.com 1.10,2013-06-29 18:16:00,
2013-06-29 14:31:00,81.1,73.0,29.73,South,185,2.0,7.0,75,0.00,,,0.01,367,weatherlink.com 1.10,2013-06-29 18:31:00,
2013-06-29 14:46:00,81.8,73.0,29.71,SSW,208,3.0,7.0,75,0.00,,,0.01,598,weatherlink.com 1.10,2013-06-29 18:46:00,
2013-06-29 15:01:00,83.0,73.0,29.71,WSW,243,0.0,7.0,72,0.00,,,0.01,410,weatherlink.com 1.10,2013-06-29 19:01:00,
2013-06-29 15:16:00,83.2,72.0,29.70,SW,214,0.0,6.0,69,0.00,,,0.01,547,weatherlink.com 1.10,2013-06-29 19:16:00,
2013-06-29 15:31:00,84.1,72.0,29.69,SSW,198,0.0,7.0,66,0.00,,,0.01,552,weatherlink.com 1.10,2013-06-29 19:31:00,
2013-06-29 15:46:00,85.1,72.0,29.69,West,270,1.0,8.0,66,0.00,,,0.01,740,weatherlink.com 1.10,2013-06-29 19:46:00,
2013-06-29 16:01:00,86.1,72.0,29.68,SSW,207,0.0,9.0,63,0.00,,,0.01,459,weatherlink.com 1.10,2013-06-29 20:01:00,
2013-06-29 16:16:00,85.9,72.0,29.68,South,186,0.0,11.0,64,0.00,,,0.01,650,weatherlink.com 1.10,2013-06-29 20:16:00,
2013-06-29 16:31:00,86.5,72.0,29.68,SSE,166,6.0,12.0,63,0.00,,,0.01,687,weatherlink.com 1.10,2013-06-29 20:31:00,
2013-06-29 16:46:00,87.2,73.0,29.68,SW,217,1.0,11.0,62,0.00,,,0.01,420,weatherlink.com 1.10,2013-06-29 20:46:00,
2013-06-29 17:01:00,86.1,72.0,29.68,East,88,0.0,8.0,63,0.00,,,0.01,141,weatherlink.com 1.10,2013-06-29 21:01:00,
2013-06-29 17:16:00,85.1,72.0,29.68,SW,217,1.0,5.0,65,0.00,,,0.01,162,weatherlink.com 1.10,2013-06-29 21:16:00,
2013-06-29 17:31:00,84.3,73.0,29.67,SW,229,0.0,7.0,68,0.00,,,0.01,244,weatherlink.com 1.10,2013-06-29 21:31:00,
2013-06-29 17:46:00,84.5,73.0,29.68,WSW,240,0.0,5.0,69,0.00,,,0.01,190,weatherlink.com 1.10,2013-06-29 21:46:00,
2013-06-29 18:01:00,84.3,73.0,29.68,WSW,237,3.0,11.0,69,0.00,,,0.01,197,weatherlink.com 1.10,2013-06-29 22:01:00,
2013-06-29 18:16:00,84.1,73.0,29.67,SSW,205,0.0,10.0,69,0.00,,,0.01,306,weatherlink.com 1.10,2013-06-29 22:16:00,
2013-06-29 18:31:00,84.3,73.0,29.67,SW,235,0.0,6.0,69,0.00,,,0.01,135,weatherlink.com 1.10,2013-06-29 22:31:00,
2013-06-29 18:46:00,84.1,73.0,29.67,South,190,0.0,6.0,69,0.00,,,0.01,83,weatherlink.com 1.10,2013-06-29 22:46:00,
2013-06-29 19:01:00,84.0,74.0,29.67,SW,228,0.0,6.0,72,0.00,,,0.01,60,weatherlink.com 1.10,2013-06-29 23:01:00,
2013-06-29 19:16:00,83.6,74.0,29.68,SW,232,0.0,4.0,73,0.00,,,0.01,39,weatherlink.com 1.10,2013-06-29 23:16:00,
2013-06-29 19:31:00,83.2,74.0,29.69,SSW,209,0.0,5.0,73,0.00,,,0.01,18,weatherlink.com 1.10,2013-06-29 23:31:00,
2013-06-29 19:46:00,82.6,73.0,29.69,SW,220,0.0,6.0,72,0.00,,,0.01,11,weatherlink.com 1.10,2013-06-29 23:46:00,
2013-06-29 20:01:00,82.2,71.0,29.70,SW,225,0.0,7.0,69,0.00,,,0.01,9,weatherlink.com 1.10,2013-06-30 00:01:00,
2013-06-29 20:16:00,81.8,71.0,29.70,SW,214,1.0,6.0,69,0.00,,,0.01,5,weatherlink.com 1.10,2013-06-30 00:16:00,
2013-06-29 20:31:00,81.4,71.0,29.70,South,188,0.0,6.0,70,0.00,,,0.01,0,weatherlink.com 1.10,2013-06-30 00:31:00,
2013-06-29 20:46:00,81.1,71.0,29.70,SSW,209,0.0,12.0,71,0.00,,,0.01,0,weatherlink.com 1.10,2013-06-30 00:46:00,
2013-06-29 21:01:00,80.9,71.0,29.70,SSW,200,0.0,5.0,72,0.00,,,0.01,0,weatherlink.com 1.10,2013-06-30 01:01:00,
2013-06-29 21:16:00,80.5,71.0,29.71,SW,223,0.0,4.0,72,0.00,,,0.01,0,weatherlink.com 1.10,2013-06-30 01:16:00,
2013-06-29 21:31:00,80.3,71.0,29.71,SW,218,0.0,4.0,73,0.00,,,0.01,0,weatherlink.com 1.10,2013-06-30 01:31:00,
2013-06-29 21:46:00,80.1,71.0,29.71,SSW,200,0.0,3.0,74,0.00,,,0.01,0,weatherlink.com 1.10,2013-06-30 01:46:00,
2013-06-29 22:01:00,79.9,71.0,29.72,SSW,205,0.0,6.0,75,0.00,,,0.01,0,weatherlink.com 1.10,2013-06-30 02:01:00,
2013-06-29 22:16:00,79.6,71.0,29.72,SSW,200,0.0,4.0,76,0.00,,,0.01,0,weatherlink.com 1.10,2013-06-30 02:16:00,
2013-06-29 22:31:00,79.2,71.0,29.73,SSW,199,1.0,1.0,76,0.00,,,0.01,0,weatherlink.com 1.10,2013-06-30 02:31:00,
2013-06-29 22:46:00,78.8,71.0,29.73,SSW,200,0.0,2.0,77,0.00,,,0.01,0,weatherlink.com 1.10,2013-06-30 02:46:00,
2013-06-29 23:01:00,78.6,71.0,29.73,SSW,199,0.0,2.0,77,0.00,,,0.01,0,weatherlink.com 1.10,2013-06-30 03:01:00,
2013-06-29 23:16:00,78.6,71.0,29.73,SSW,199,0.0,2.0,78,0.00,,,0.01,0,weatherlink.com 1.10,2013-06-30 03:16:00,
2013-06-29 23:32:00,78.6,72.0,29.73,WSW,244,2.0,6.0,79,0.00,,,0.01,0,weatherlink.com 1.10,2013-06-30 03:32:00,
2013-06-29 23:46:00,78.8,72.0,29.73,WSW,254,0.0,6.0,79,0.00,,,0.01,0,weatherlink.com 1.10,2013-06-30 03:46:00,